Location: Exeidioux
(45.6312°N, 1.6819°E)
Time: 07:54:29
(UTC+00:00)

IRS-1A Rocket - Pass Details

Date: 03 March 2021
Orbit: 851 x 931 km, 99.2° (Epoch: 10 April)

Event Time Altitude Azimuth Distance (km) Brightness Sun altitude
Exits shadow 19:46:40 29° 157° (SSE) 1,542 5.2 -22.3°
Maximum altitude 19:49:39 81° 73° (ENE) 889 4.1 -22.8°
Drops below altitude 10° 19:55:14 10° 347° (NNW) 2,512 7.0 -23.7°
Sets 19:57:36 0° 347° (NNW) 3,445 7.8 -24.1°
